Home > Weather > Igloolik > Past weeks

Flag for Canada Weather for the Past 2 Weeks in Igloolik, Nunavut, Canada

Now
3 °F

Sunny.


Feels Like: -15 °F
Forecast: -2 / 13 °F
Wind: 15 mph from Northwest

Location: Hall Beach

Current Time: Apr 29, 2016 at 11:32:16 PM

Latest Report: Apr 29, 2016 at 10:00 PM


Visibility: 9 mi

Pressure: 30.35 "Hg

Humidity: 85%

Dew Point: 0 °F

Location of IgloolikLocation

Historic Weather in Igloolik — Graph

°F

Igloolik Temperature Yesterday

Maximum temperature yesterday: 14 °F (at 3:00 PM)
Minimum temperature yesterday: -4 °F (at 5:00 AM)
Average temperature yesterday: 4 °F

High & Low Weather Summary for the Past Weeks

 TemperatureHumidityPressure
High18 °F (Apr 21, 10:04 PM)93% (Apr 21, 9:00 PM)30.49 "Hg (Apr 21, 9:00 PM)
Low-17 °F (Apr 16, 3:00 AM)70% (Apr 15, 9:00 AM)29.23 "Hg (Apr 21, 9:00 PM)
Average3 °F82%30.11 "Hg
* Reported Apr 14 9:00 PM — Apr 29 9:00 PM, Igloolik, Weather by CustomWeather, © 2016

Note: Actual official high and low records may vary slightly from our data, if they occured in-between our weather recording intervals... More about our weather records

Advertising

Igloolik Weather History for the Previous 24 Hours

Scroll right to see more
 ConditionsComfort  
Time TempWeatherWind HumidityBarometerVisibility
9:00 PM
Fri, Apr 29
5 °FSunny.15 mph85%30.35 "Hg9 mi
8:00 PM9 °FPassing clouds.14 mph85%30.35 "Hg15 mi
7:00 PM12 °FSunny.7 mph79%30.36 "Hg15 mi
6:00 PM14 °FPassing clouds.16 mph79%30.36 "Hg15 mi
5:00 PM14 °FPassing clouds.15 mph79%30.35 "Hg15 mi
4:00 PM14 °FPassing clouds.20 mph79%30.34 "Hg15 mi
3:00 PM14 °FPassing clouds.12 mph79%30.36 "Hg15 mi
2:00 PM12 °FPassing clouds.13 mph85%30.36 "Hg15 mi
1:00 PM10 °FPassing clouds.15 mph79%30.36 "Hg15 mi
12:00 PM9 °FPassing clouds.18 mph78%30.36 "Hg15 mi
11:00 AM7 °FPassing clouds.16 mph78%30.37 "Hg15 mi
10:00 AM3 °FSunny.15 mph78%30.37 "Hg15 mi
9:00 AM1 °FSunny.15 mph78%30.38 "Hg15 mi
8:00 AM-2 °FSunny.16 mph77%30.39 "Hg15 mi
7:00 AM-4 °FSunny.17 mph77%30.40 "Hg9 mi
6:00 AM-6 °FSunny.13 mph84%30.40 "Hg9 mi
5:00 AM-6 °FClear.17 mph84%30.40 "Hg9 mi
4:00 AM-6 °FClear.16 mph77%30.40 "Hg9 mi
3:00 AM-6 °FClear.16 mph84%30.40 "Hg9 mi
2:00 AM-6 °FClear.17 mph84%30.40 "Hg9 mi
1:00 AM-4 °FClear.20 mph77%30.40 "Hg9 mi
12:00 AM-4 °FClear.16 mph77%30.41 "Hg9 mi
11:00 PM
Thu, Apr 28
-2 °FSunny.18 mph77%30.41 "Hg9 mi
Weather by CustomWeather, © 2016

See weather overviewHow to use our weather pages